Location: Black Swamp Observatory
(41.3920°N, 84.1250°W)
Time: 10:02:20
(UTC-05:00)

Tiangong - Visible Passes

Search period start: 03 December 2022 00:00
Search period end: 13 December 2022 00:00
Orbit: 386 x 394 km, 41.5° (Epoch: 02 December)

Date Brightness Start Highest point End Pass type
(mag) Time Alt. Az. Time Alt. Az. Time Alt. Az.
03 Dec -2.2 18:31:44 10° WSW 18:34:55 82° S 18:35:49 44° E visible
04 Dec -1.9 17:33:46 10° WSW 17:36:55 65° SSE 17:40:05 10° E visible
04 Dec -0.9 19:10:39 10° W 19:12:52 41° W 19:12:52 41° W visible
05 Dec -2.2 18:12:34 10° W 18:15:46 87° N 18:17:35 23° E visible
05 Dec 1.3 19:49:32 10° W 19:49:53 13° W 19:49:53 13° W visible
06 Dec -2.2 18:51:24 10° W 18:54:36 80° S 18:54:36 80° S visible
07 Dec -2.2 17:53:14 10° W 17:56:26 88° N 17:59:21 12° E visible
07 Dec 0.4 19:30:14 10° W 19:31:40 22° WSW 19:31:40 22° WSW visible
08 Dec -1.7 18:31:58 10° W 18:35:07 59° SSW 18:36:28 30° SE visible
09 Dec -2.0 17:33:43 10° W 17:36:54 78° S 17:40:05 10° ESE visible
09 Dec -0.2 19:10:54 10° W 19:13:35 25° SSW 19:13:41 25° SSW visible
10 Dec -0.8 18:12:26 10° W 18:15:25 38° SSW 18:18:23 10° SE visible
11 Dec 0.8 18:51:46 10° WSW 18:53:39 15° SSW 18:55:33 10° S visible
12 Dec 0.3 17:52:51 10° W 17:55:27 23° SSW 17:58:04 10° SSE visible
